Regional Weather Roundup
Issued by NWS

Home | Current Version | Previous Version | Text Only | Print | Product List | Glossary On
Versions: 1 2 3 4 5 6 7 8 9 10 11 12 13 14 15 16 17 18 19 20 21 22 23 24 25 26 27 28 29 30 31 32 33 34 35 36 37 38 39 40 41 42 43 44 45 46 47 48 49 50
000
ASUS44 KJAN 200810
RWRMS

MISSISSIPPI HOURLY WEATHER ROUNDUP
NATIONAL WEATHER SERVICE JACKSON MS
300 AM CDT MON OCT 20 2014

NOTE: "FAIR: INDICATES FEW OR NO CLOUDS BELOW 12,000 FEET WITH NO
SIGNIFICANT WEATHER AND/OR OBSTRUCTIONS TO VISIBILITY.

MSZ001>002-007>008-010>013-018>021-025>028-034>036-200900-
NORTHWEST MISSISSIPPI

CITY           SKY/WX    TMP DP  RH WIND       PRES   REMARKS
CLARKSDALE     FAIR      48  48 100 CALM      30.09S
CLEVELAND      FAIR      49  49  99 CALM      30.08R
GREENWOOD      CLEAR     47  46  97 CALM      30.08S
GREENVILLE     FOG       48  46  93 CALM      30.08R VSB 1
GRENADA          N/A    N/A N/A N/A MISG        N/A
OLIVE BRANCH   CLEAR     45  45 100 CALM      30.08F
OXFORD         FAIR      43  41  93 CALM      30.10F
TUNICA         FOG       45  45 100 CALM      30.09S VSB 1/2
$$

MSZ003>006-009-014>017-022>024-029>033-037>039-200900-
NORTHEAST MISSISSIPPI

CITY           SKY/WX    TMP DP  RH WIND       PRES   REMARKS
COLUMBUS AFB   CLEAR     45  44  99 NE1       30.08F
CORINTH          N/A     43  41  93 CALM        N/A
GOLDN TRIANGLE CLEAR     46  43  87 CALM      30.07S
TUPELO         CLEAR     46  44  93 CALM      30.08S
$$

MSZ040-058-200900-
CENTRAL MISSISSIPPI

CITY           SKY/WX    TMP DP  RH WIND       PRES   REMARKS
JACKSON INTL   CLEAR     46  44  93 CALM      30.07S
JACKSON HAWKNS CLEAR     50  46  86 CALM      30.07S
MERIDIAN KEY   CLEAR     45  43  93 CALM      30.07F
MERIDIAN NAS   CLEAR     45  44  97 CALM      30.07F
RAYMOND        FAIR      45  39  81 CALM      30.07F HAZE
VICKSBURG      CLEAR     43  42  97 CALM      30.08S
$$

MSZ059>079-200900-
SOUTH MISSISSIPPI

CITY           SKY/WX    TMP DP  RH WIND       PRES   REMARKS
BROOKHAVEN     FAIR      46  46 100 CALM      30.08F
COLUMBIA         N/A    N/A N/A N/A MISG        N/A
HATTIESBURG    CLEAR     48  44  86 CALM      30.07S
MCCOMB         CLEAR     50  46  86 CALM      30.06S
NATCHEZ        CLEAR     48  45  87 CALM      30.07F
PINE BELT      CLEAR     46  43  87 CALM      30.07F
$$

MSZ080>082-200900-
COASTAL MISSISSIPPI

CITY           SKY/WX    TMP DP  RH WIND       PRES   REMARKS
BILOXI         PTCLDY    55  50  83 NE2       30.05S
PASCAGOULA     CLEAR     47  46  97 CALM      30.05S
GULFPORT       CLEAR     53  51  93 CALM      30.04F
$$



USA.gov is the U.S. government's official web portal to all federal, state and local government web resources and services.